Tracking 19832 objects as of 25-Aug-2019
HD Live streaming from Space Station
objects crossing your sky now

TITAN 3C TRANSTAGE DEB

Track TITAN 3C TRANSTAGE DEB now!


NORAD ID: 27866
Int'l Code: 1965-108BM
Perigee: 1,329.6 km
Apogee: 30,558.2 km
Inclination: 27.2 °
Period: 552.9 minutes
Semi major axis: 22314 km
RCS: 0.0979 m2 (small)
Launch date: December 21, 1965
Source: United States (US)
Launch site: AIR FORCE EASTERN TEST RANGE (AFETR)

Note: This is SATELLITE DEBRIS
aabbcc
Your satellite tracking list
Your tracking list is empty




NASA's NSSDC Master Catalog

Two Line Element Set (TLE):
1 27866U 65108BM  15095.05168716 -.00000069 +00000-0 +00000-0 0  9999
2 27866 027.1578 037.4230 6549122 241.1075 021.2238 02.60442223123097
Source of the keplerian elements: AFSPC